This is the latest recevied weather packets stored in our database for station/object K3TLB-13. If no packets are shown the sender has not sent any weather packets the latest 10 day(s).
| Time | Temp. | Humidity | Pressure | Rain* | Wind** | Luminosity | Snow |
|---|---|---|---|---|---|---|---|
| 1777916646 | 21.67° C | 37% | 1011.8 hPa | 0 mm | - | - | - |
| 1777916345 | 21.67° C | 38% | 1011.7 hPa | 0 mm | - | - | - |
| 1777916045 | 21.11° C | 38% | 1011.7 hPa | 0 mm | - | - | - |
| 1777915746 | 21.11° C | 40% | 1011.9 hPa | 0 mm | - | - | - |
| 1777915445 | 20.56° C | 39% | 1011.9 hPa | 0 mm | - | - | - |
| 1777914845 | 20.56° C | 37% | 1012.1 hPa | 0 mm | - | - | - |
| 1777914545 | 20.56° C | 39% | 1012.1 hPa | 0 mm | - | - | - |
| 1777914245 | 20.56° C | 40% | 1012.1 hPa | 0 mm | - | - | - |
| 1777913945 | 20° C | 40% | 1012.1 hPa | 0 mm | - | - | - |
| 1777913645 | 20.56° C | 38% | 1012.1 hPa | 0 mm | - | - | - |
| 1777913345 | 20° C | 38% | 1012.2 hPa | 0 mm | - | - | - |
| 1777913045 | 20° C | 38% | 1012.3 hPa | 0 mm | - | - | - |
| 1777912745 | 20° C | 43% | 1012.4 hPa | 0 mm | - | - | - |
| 1777912445 | 20° C | 37% | 1012.5 hPa | 0 mm | - | - | - |
| 1777912145 | 20° C | 40% | 1012.5 hPa | 0 mm | - | - | - |
| 1777911845 | 19.44° C | 39% | 1012.6 hPa | 0 mm | - | - | - |
| 1777911545 | 20° C | 38% | 1012.7 hPa | 0 mm | - | - | - |
| 1777911245 | 19.44° C | 43% | 1012.7 hPa | 0 mm | - | - | - |
| 1777910945 | 19.44° C | 38% | 1012.9 hPa | 0 mm | - | - | - |
| 1777910645 | 19.44° C | 38% | 1013 hPa | 0 mm | - | - | - |
| 1777910346 | 18.89° C | 37% | 1013 hPa | 0 mm | - | - | - |
| 1777910046 | 19.44° C | 39% | 1013.1 hPa | 0 mm | - | - | - |
| 1777909745 | 19.44° C | 36% | 1013.1 hPa | 0 mm | - | - | - |
| 1777909445 | 19.44° C | 39% | 1013.1 hPa | 0 mm | - | - | - |
| 1777909145 | 19.44° C | 39% | 1013.2 hPa | 0 mm | - | - | - |
* Rain latest hour (hover to see other rain measurements)
** Current wind speed in m/s (hover to see current wind gust speed)